Weather History for Sheridan, WY

Change the Weather History Date:

Thursday, April 25, 2013

  Actual Average Record
Temperature  
Mean Temperature 49 °F 46 °F  
Max Temperature 65 °F 60 °F 81 °F (1952)
Min Temperature 32 °F 32 °F 14 °F (1950)
Degree Days  
Heating Degree Days 16 19  
Month to date heating degree days 736 552  
Since 1 July heating degree days 7015 7011  
Cooling Degree Days 0 0  
Month to date cooling degree days 0 0  
Year to date cooling degree days 0 0  
Moisture  
Dew Point 23 °F    
Average Humidity 43    
Maximum Humidity 69    
Minimum Humidity 17    
Precipitation  
Precipitation 0.00 in 0.07 in 0.88 in (1964)
Month to date precipitation 1.99 1.24  
Year to date precipitation 4.01 3.32  
Sea Level Pressure  
Sea Level Pressure 29.88 in    
Wind  
Wind Speed 8 mph (NW)    
Max Wind Speed 24 mph    
Max Gust Speed 30 mph    
Visibility 10 miles    
Events      
T = Trace of Precipitation, MM = Missing Value Source: NWS Daily Summary

Daily Weather History Graph

Daily Weather History Graph

Search for Another Location

Airport:

Trip Planner

Search our weather history database for the weather conditions in past years. The results will help you decide how hot, cold, wet, or windy it might be!

Date:

Astronomy

Apr. 25, 2013 Rise Set
Actual Time 6:06 AM MDT 8:05 PM MDT
Civil Twilight 5:34 AM MDT 8:37 PM MDT
Nautical Twilight 4:56 AM MDT 9:16 PM MDT
Astronomical Twilight 4:13 AM MDT 9:59 PM MDT
Moon 8:23 PM MDT (4/25) 5:51 AM MDT (4/25)
Length of Visible Light 15h 02m
Length of Day
13h 59m
Full, 100% of the Moon is Illuminated
Apr 25
Full
Apr 25
Full
May 2
Last Quarter
May 9
New
May 17
First Quarter

Hourly Weather History & Observations

Time (MDT) Temp. Windchill Dew Point Humidity Pressure Visibility Wind Dir Wind Speed Gust Speed Precip Events Conditions
12:53 AM 46.0 °F 41.0 °F 19.9 °F 35% 29.95 in 10.0 mi WNW 10.4 mph 19.6 mph N/A   Clear
1:53 AM 46.9 °F - 19.9 °F 34% 29.92 in 10.0 mi WSW 23.0 mph 29.9 mph N/A   Clear
2:53 AM 45.0 °F 38.2 °F 21.0 °F 39% 29.92 in 10.0 mi WSW 15.0 mph - N/A   Clear
3:53 AM 48.0 °F - 19.0 °F 32% 29.91 in 10.0 mi WSW 19.6 mph 24.2 mph N/A   Clear
4:53 AM 48.2 °F - 17.6 °F 30% 29.89 in 10.0 mi Variable 5.8 mph - N/A   Clear
5:53 AM 48.0 °F - 16.0 °F 28% 29.89 in 10.0 mi West 10.4 mph 17.3 mph N/A   Clear
6:53 AM 33.1 °F 30.0 °F 24.1 °F 70% 29.94 in 10.0 mi NNW 3.5 mph - N/A   Clear
7:53 AM 39.9 °F 35.8 °F 28.0 °F 63% 29.93 in 10.0 mi NNE 5.8 mph - N/A   Clear
8:53 AM 48.0 °F - 30.9 °F 52% 29.91 in 10.0 mi North 4.6 mph - N/A   Clear
9:53 AM 52.0 °F - 28.9 °F 41% 29.89 in 10.0 mi NE 4.6 mph - N/A   Clear
10:53 AM 57.9 °F - 23.0 °F 26% 29.88 in 10.0 mi North 4.6 mph - N/A   Clear
11:53 AM 60.1 °F - 21.9 °F 23% 29.85 in 10.0 mi Calm Calm - N/A   Clear
12:53 PM 62.1 °F - 17.1 °F 18% 29.81 in 10.0 mi WNW 10.4 mph 19.6 mph N/A   Clear
1:53 PM 63.0 °F - 18.0 °F 18% 29.80 in 10.0 mi NW 15.0 mph 25.3 mph N/A   Clear
2:53 PM 64.0 °F - 19.0 °F 18% 29.79 in 10.0 mi NNW 15.0 mph 19.6 mph N/A   Clear
3:53 PM 64.0 °F - 19.9 °F 18% 29.78 in 10.0 mi NW 13.8 mph 21.9 mph N/A   Clear
4:53 PM 64.0 °F - 21.0 °F 19% 29.79 in 10.0 mi NNW 11.5 mph 19.6 mph N/A   Partly Cloudy
5:53 PM 63.0 °F - 19.9 °F 19% 29.80 in 10.0 mi NNW 5.8 mph - N/A   Partly Cloudy
6:53 PM 59.0 °F - 30.9 °F 35% 29.86 in 10.0 mi NW 5.8 mph - N/A   Mostly Cloudy
7:53 PM 46.9 °F - 34.0 °F 61% 29.90 in 10.0 mi West 4.6 mph - N/A   Scattered Clouds
8:53 PM 46.0 °F - 33.1 °F 61% 29.92 in 10.0 mi Calm Calm - N/A   Overcast
9:53 PM 44.1 °F - 30.0 °F 58% 29.95 in 10.0 mi Calm Calm - N/A   Clear
10:53 PM 42.1 °F 38.4 °F 27.0 °F 55% 29.95 in 10.0 mi SSW 5.8 mph - N/A   Clear
11:53 PM 42.1 °F 40.2 °F 25.0 °F 51% 29.96 in 10.0 mi SW 3.5 mph - N/A   Clear